Date String (YYYY-MM-DD hh:mm:ss) UTC,Instrument flags,Ambient pressure (hPa),Sample flow (lpm),Bypass flow (lpm),Sample temperature (°C),Ambient temperature (°C),ASC tube jacket temperature (°C),LED temperature (°C),Box temperature (°C),Sample RH (%),Span deviation,Mass concentration (μg/m³),Mass concentration (μg/m³),Mass concentration (μg/m³)
DateTimeUTC,F1_M11,P_M11,Q1_M11,Q2_M11,T1_M11,T2_M11,T3_M11,T4_M11,T5_M11,U1_M11,ZSPAN_M11,X2_M11,X0_M11,X1_M11
2021-11-01 14:00:00,,0831.1,5.00,0.00,23.8,22.9,00.0,32.8,25.6,19.1,0000.0,0004.04,0005.43,0003.81
2021-11-01 14:01:00,,0831.2,5.00,0.00,23.8,22.9,00.0,32.8,25.6,19.0,0000.0,0004.04,0005.45,0003.80
2021-11-01 14:02:00,,0831.2,4.99,0.00,23.8,22.9,00.0,32.8,25.5,18.9,0000.0,0004.01,0005.37,0003.78
2021-11-01 14:03:00,,0831.2,5.01,0.00,23.8,22.9,00.0,32.8,25.5,18.9,0000.0,0003.97,0005.20,0003.76
2021-11-01 14:04:00,,0831.2,4.99,0.00,23.7,22.9,00.0,32.8,25.5,18.8,0000.0,0003.93,0005.07,0003.74
2021-11-01 14:05:00,,0831.2,5.01,0.00,23.7,22.9,00.0,32.8,25.5,18.8,0000.0,0003.91,0005.00,0003.72
2021-11-01 14:06:00,,0831.2,5.00,0.00,23.7,22.9,00.0,32.8,25.5,18.7,0000.0,0003.88,0004.95,0003.70
2021-11-01 14:07:00,,0831.2,5.00,0.00,23.7,22.9,00.0,32.8,25.5,18.7,0000.0,0003.82,0004.79,0003.66
2021-11-01 14:08:00,,0831.2,4.99,0.00,23.7,22.9,00.0,32.8,25.5,18.6,0000.0,0003.77,0004.67,0003.61
2021-11-01 14:09:00,,0831.2,5.01,0.00,23.7,22.9,00.0,32.8,25.5,18.6,0000.0,0003.72,0004.69,0003.57
2021-11-01 14:10:00,,0831.2,4.99,0.00,23.7,22.9,00.0,32.8,25.5,18.6,0000.0,0003.68,0005.07,0003.53
2021-11-01 14:11:00,,0831.2,5.01,0.00,23.7,22.9,00.0,32.8,25.5,18.6,0000.0,0003.63,0004.91,0003.49
2021-11-01 14:12:00,,0831.2,5.00,0.00,23.7,22.8,00.0,32.8,25.5,18.6,0000.0,0003.58,0004.73,0003.45
2021-11-01 14:13:00,,0831.2,4.99,0.00,23.7,22.8,00.0,32.8,25.5,18.6,0000.0,0003.52,0004.57,0003.41
2021-11-01 14:14:00,,0831.2,5.01,0.00,23.7,22.8,00.0,32.8,25.5,18.6,0000.0,0003.49,0004.54,0003.36
2021-11-01 14:15:00,,0831.2,4.99,0.00,23.7,22.8,00.0,32.7,25.5,18.5,0000.0,0003.47,0004.63,0003.32
2021-11-01 14:16:00,,0831.2,5.00,0.00,23.7,22.8,00.0,32.7,25.5,18.5,0000.0,0003.45,0004.64,0003.30
2021-11-01 14:17:00,,0831.2,5.01,0.00,23.7,22.8,00.0,32.7,25.5,18.5,0000.0,0003.43,0004.58,0003.27
2021-11-01 14:18:00,,0831.2,5.01,0.00,23.7,22.8,00.0,32.7,25.5,18.5,0000.0,0003.41,0004.52,0003.25
2021-11-01 14:19:00,,0831.2,5.00,0.00,23.7,22.8,00.0,32.7,25.5,18.4,0000.0,0003.40,0004.46,0003.24
2021-11-01 14:20:00,,0831.3,5.01,0.00,23.6,22.8,00.0,32.7,25.5,18.4,0000.0,0003.38,0004.30,0003.23
2021-11-01 14:21:00,,0831.4,5.00,0.00,23.6,22.8,00.0,32.7,25.5,18.4,0000.0,0003.34,0003.68,0003.20
2021-11-01 14:22:00,,0831.4,4.99,0.00,23.6,22.8,00.0,32.7,25.5,18.3,0000.0,0003.32,0003.64,0003.18
2021-11-01 14:23:00,,0831.5,5.00,0.00,23.6,22.8,00.0,32.7,25.5,18.3,0000.0,0003.31,0003.65,0003.16
2021-11-01 14:24:00,,0831.5,5.00,0.00,23.6,22.8,00.0,32.7,25.5,18.3,0000.0,0003.31,0003.66,0003.16
2021-11-01 14:25:00,,0831.4,5.00,0.00,23.6,22.8,00.0,32.7,25.5,18.4,0000.0,0003.30,0003.63,0003.15
2021-11-01 14:26:00,,0831.5,5.01,0.00,23.6,22.8,00.0,32.7,25.5,18.4,0000.0,0003.29,0003.51,0003.16
2021-11-01 14:27:00,,0831.5,5.00,0.00,23.6,22.8,00.0,32.7,25.4,18.3,0000.0,0003.28,0003.50,0003.14
2021-11-01 14:28:00,,0831.4,5.00,0.00,23.6,22.8,00.0,32.7,25.5,18.3,0000.0,0003.24,0003.45,0003.12
2021-11-01 14:29:00,,0831.5,5.01,0.00,23.6,22.8,00.0,32.7,25.5,18.4,0000.0,0003.25,0004.56,0003.10
2021-11-01 14:30:00,,0831.5,4.99,0.00,23.6,22.8,00.0,32.7,25.5,18.4,0000.0,0003.25,0005.46,0003.07
2021-11-01 14:31:00,,0831.5,5.02,0.00,23.6,22.8,00.0,32.7,25.4,18.4,0000.0,0003.23,0005.58,0003.02
2021-11-01 14:32:00,,0831.5,4.98,0.00,23.6,22.8,00.0,32.7,25.5,18.4,0000.0,0003.23,0005.71,0003.00
2021-11-01 14:33:00,,0831.5,5.00,0.00,23.6,22.8,00.0,32.7,25.5,18.4,0000.0,0003.21,0005.69,0002.96
2021-11-01 14:34:00,,0831.4,5.01,0.00,23.6,22.8,00.0,32.7,25.4,18.3,0000.0,0003.17,0005.60,0002.92
2021-11-01 14:35:00,,0831.3,5.00,0.00,23.6,22.8,00.0,32.7,25.4,18.4,0000.0,0003.14,0005.55,0002.87
2021-11-01 14:36:00,,0831.4,5.00,0.00,23.6,22.7,00.0,32.7,25.4,18.4,0000.0,0003.12,0005.55,0002.84
2021-11-01 14:37:00,,0831.4,5.00,0.00,23.6,22.7,00.0,32.7,25.4,18.4,0000.0,0003.12,0005.56,0002.80
2021-11-01 14:38:00,,0831.5,5.01,0.00,23.6,22.7,00.0,32.6,25.4,18.4,0000.0,0003.13,0005.62,0002.78
2021-11-01 14:39:00,,0831.5,4.99,0.00,23.6,22.7,00.0,32.6,25.4,18.5,0000.0,0003.13,0005.63,0002.78
2021-11-01 14:40:00,,0831.6,5.00,0.00,23.6,22.7,00.0,32.6,25.3,18.5,0000.0,0003.11,0004.67,0002.77
2021-11-01 14:41:00,,0831.7,5.00,0.00,23.6,22.7,00.0,32.6,25.4,18.5,0000.0,0003.09,0003.80,0002.76
2021-11-01 14:42:00,,0831.7,5.00,0.00,23.5,22.7,00.0,32.6,25.4,18.6,0000.0,0003.12,0003.55,0002.78
2021-11-01 14:43:00,,0831.7,5.00,0.00,23.6,22.7,00.0,32.6,25.3,18.6,0000.0,0003.16,0003.58,0002.84
2021-11-01 14:44:00,,0831.7,5.00,0.00,23.6,22.7,00.0,32.6,25.3,18.6,0000.0,0003.21,0003.72,0002.91
2021-11-01 14:45:00,,0831.7,4.99,0.00,23.5,22.7,00.0,32.6,25.3,18.6,0000.0,0003.27,0004.30,0002.97
2021-11-01 14:46:00,,0831.7,5.01,0.00,23.5,22.7,00.0,32.6,25.3,18.6,0000.0,0003.33,0005.69,0003.01
2021-11-01 14:47:00,,0831.7,4.99,0.00,23.5,22.7,00.0,32.6,25.3,18.6,0000.0,0003.37,0006.30,0003.06
2021-11-01 14:48:00,,0831.7,5.01,0.00,23.5,22.7,00.0,32.6,25.4,18.6,0000.0,0003.38,0006.50,0003.10
2021-11-01 14:49:00,,0831.8,5.00,0.00,23.5,22.7,00.0,32.6,25.4,18.6,0000.0,0003.36,0006.94,0003.11
2021-11-01 14:50:00,,0831.7,5.00,0.00,23.5,22.7,00.0,32.6,25.4,18.6,0000.0,0003.35,0006.93,0003.11
2021-11-01 14:51:00,,0831.7,4.99,0.00,23.6,22.7,00.0,32.6,25.3,18.7,0000.0,0003.36,0006.98,0003.13
2021-11-01 14:52:00,,0831.8,5.01,0.00,23.6,22.7,00.0,32.6,25.4,18.6,0000.0,0003.39,0007.06,0003.14
2021-11-01 14:53:00,,0831.7,5.00,0.00,23.5,22.7,00.0,32.6,25.4,18.6,0000.0,0003.40,0007.09,0003.15
2021-11-01 14:54:00,,0831.7,4.99,0.00,23.5,22.7,00.0,32.6,25.4,18.6,0000.0,0003.38,0007.10,0003.14
2021-11-01 14:55:00,,0831.7,5.02,0.00,23.5,22.7,00.0,32.6,25.4,18.6,0000.0,0003.34,0007.02,0003.11
2021-11-01 14:56:00,,0831.7,5.00,0.00,23.5,22.7,00.0,32.6,25.4,18.6,0000.0,0003.32,0006.70,0003.09
2021-11-01 14:57:00,,0831.7,5.00,0.00,23.5,22.7,00.0,32.6,25.4,18.6,0000.0,0003.28,0005.21,0003.06
2021-11-01 14:58:00,,0831.8,5.01,0.00,23.5,22.7,00.0,32.6,25.3,18.6,0000.0,0003.24,0004.60,0003.03
2021-11-01 14:59:00,,0831.8,4.99,0.00,23.5,22.7,00.0,32.6,25.3,18.6,0000.0,0003.24,0004.39,0003.02
